TIMESTAMP,CO2_1_1_1,H2O_1_1_1,TAU_1_1_1,TAU_SSITC_TEST_1_1_1,H_1_1_1,H_SSITC_TEST_1_1_1,LE_1_1_1,LE_SSITC_TEST_1_1_1,FC_1_1_1,FC_SSITC_TEST_1_1_1,WD_0_0_1,WS_0_0_1,WS_MAX_0_0_1,U_SIGMA_0_0_1,V_SIGMA_0_0_1,W_SIGMA_0_0_1,USTAR_0_0_1,MO_LENGTH_0_0_1,ZL_0_0_1,FETCH_MAX_0_0_1,FETCH_70_0_0_1,FETCH_80_0_0_1,FETCH_90_0_0_1,PA_0_0_1,RH_0_0_1,TA_0_0_1,VPD_0_0_1,T_SONIC_0_0_1,T_SONIC_SIGMA_0_0_1
[yyyymmddHHMMSS],[mmolCO2 mol-1],[mmolH2O mol-1],[kg m-1 s-2],[#],[W m-2],[#],[W m-2],[#],[umolCO2 m-2 s-1],[#],[Decimal degrees],[m s-1],[m s-1],[m s-1],[m s-1],[m s-1],[m s-1],[m],[#],[m],[m],[m],[m],[kPa],[%],[deg C],[hPa],[deg C],[deg C]
20220625003000,407.88050485201626,20.944683151571525,0.19192971688814228,0,9.4404967109309688,1,89.439750106660640,0,-7.2019875187833478,0,146.47523389443785,1.9918649655820726,6.2905073235123776,0.82993975904833805,0.75687741942893605,0.53144057402718359,0.41979760237591379,-653.55715555020754,-2.9071673133170037E-002,103.68671038336640,189.57237576096077,226.86971632551501,284.01396349965296,93.634350567436030,65.931724137931042,24.001034482758598,10.136340689880017,24.971744146240610,0.29697382472261413
20220625010000,409.58271430030078,20.252262752565333,0.19920361677237930,1,-22.841358415593817,0,87.608627623580389,0,-3.9894055178997077,0,165.11002318085215,1.9517098733602143,5.6398459295113232,0.75491733386447080,0.67737455217625131,0.55412068333574194,0.42757148841369091,285.36298270311909,6.6581866435587708E-002,101.76030523736195,186.05029275865550,222.65468252430614,278.73724135464579,93.630877260633682,64.061999999999998,23.919666666666672,10.640512255412602,24.874451038784457,0.11264560815860594
20220625013000,413.58896973016897,20.152472154397945,8.6767554414302894E-002,0,-26.782422611794832,0,17.982264805985796,0,3.4597319245792653,0,176.89126822733974,1.9720016190356862,4.9135216836843583,0.70078032773532617,0.60304227800594057,0.45816325874281955,0.28174407962504150,69.625306425804226,0.27288928372972021,84.863811152612470,155.15811271133839,185.68463298054317,232.45512635152596,93.623614361979165,67.483000000000004,22.973666666666645,9.0938189178437234,24.057949216206794,0.42561307613918076
20220625020000,417.15614060087410,20.833337123211685,0.13624524784358794,0,-34.792542942631584,0,-4.4393553350631665,0,11.183103416222282,0,182.63390407164741,2.0806301971756982,4.6418263788196841,0.76503598251576388,0.65255280713931729,0.53719321728783698,0.35243749340226094,104.92421832065121,0.18108307409005892,89.375022968718980,163.40604668839532,195.55530339934916,244.81203441950936,93.629840602213548,74.519666666666666,21.889333333333354,6.6715048561504453,23.135749985588973,0.23549712399540815
20220625023000,418.06638034838534,21.152344911872266,0.11255007568872252,0,-43.636023042733207,0,5.5430265086534902,0,9.0896449034975682,0,181.80891928244986,2.1183372830228047,4.5838354367022882,0.68804614059152713,0.64431244231222962,0.51012778181426366,0.32019518163681515,62.739991508087002,0.30283714650409149,86.266773036509477,157.72317448684529,188.75435679990630,236.29805630668878,93.632063351996536,76.933333333333337,21.616666666666674,5.9397734762381331,22.940802900526307,0.19716474200498491
20220625030000,420.10682760607369,21.298602755064682,8.0153980785310400E-002,0,-34.644792391727613,0,-1.6194351727041774,1,7.7287922960891295,0,183.62678386775315,2.2017433099957100,4.9466186892934321,0.68015318335963826,0.58966814225330244,0.45483140219784002,0.27006621082579180,47.422183148121363,0.40065637511150071,82.518390313546092,150.86993538391488,180.55277993538860,226.03065530682801,93.648541639539943,78.829666666666668,21.334333333333348,5.3580482162028442,22.661291775173595,0.23398994648536384
20220625033000,424.01377997859339,21.515951583666389,0.13781683971947292,0,-51.779203180574683,0,-2.3856305807447611,1,13.593102836382176,0,178.25422251342073,2.1347870496166932,4.9983677610521617,0.79149252763992661,0.68584761328135813,0.58028021856152556,0.35392700686550199,71.414035156584674,0.26605414409562489,84.309332269094952,154.14434847029864,184.47141610301856,230.93632278641704,93.641102322699652,81.506666666666661,20.954333333333352,4.5726253572387598,22.324470225863990,0.22526711638928207
20220625040000,423.18980347013189,21.426021764594449,0.19348481423937014,0,-64.907224394492516,0,3.3042621975054898,0,16.421912794323994,0,177.34099551504752,2.2735332088105595,5.7998316530457403,0.80164778305908579,0.74819868293077363,0.60360324094044371,0.41947645815701806,94.841051510156646,0.20033518921882965,93.587904525360344,171.10853780359380,204.77321802056127,256.35176968772606,93.633417715928829,80.411666666666662,21.105000000000018,4.8884065681863991,22.472192732916938,0.22591548569309558
20220625043000,424.53636053111933,21.349008546769394,9.2041693511322700E-002,0,-44.254289529981797,0,-1.4021830862496685,2,9.0943597065574693,0,171.33340865318220,2.0184379953397342,4.8460341798900037,0.69406784740653482,0.60832938045602969,0.45262526509533985,0.28926661282207194,45.613075776708740,0.41654722196352978,87.519033758398876,160.01270647453185,191.49434183453815,239.72819243159566,93.630414673177086,80.646666666666661,20.998333333333335,4.7982237090861011,22.346612512376623,0.25463539406321528
20220625050000,425.84496491878537,21.256004193746580,7.9463070356105489E-002,0,-44.571503874006012,0,2.2336978964834464,0,5.9013032341578020,0,169.73657199481968,1.9906742135637538,4.1824847800195224,0.59006968401711735,0.61602698990023841,0.43030084127242285,0.26867319656148808,36.280951200188639,0.52369079011085051,85.904639095185516,157.06107814540829,187.96199658097134,235.30611533746625,93.607089503038182,81.696666666666673,20.713000000000022,4.4589510047647041,22.071328436957515,0.25472468745378202
20220625053000,429.59969648697887,21.028861001007570,9.7966615541939917E-002,0,-44.516429615532473,0,3.0791855597313571,1,10.165135214390599,0,177.38065932795269,2.0597864607611873,4.7262039469822188,0.61802119527422972,0.60225576475271037,0.43866306710260133,0.29812237659628066,49.623471948756169,0.38288332625376170,91.931787156887609,168.08062706248177,201.14958220264413,251.81540763996247,93.601532690321179,82.730000000000004,20.334000000000003,4.1100253740827517,21.647753712972076,0.37503835518320705
20220625060000,431.60027537035012,20.766784253012855,7.8445503488392049E-002,0,-50.452750624252118,0,2.8436780456549213,2,10.956554170766477,0,192.32269087561437,2.0434417969242245,5.0018409726579547,0.61831116310816703,0.58830191291070355,0.42717887806459914,0.26658651262196931,31.314636220667168,0.60674503341221309,85.869240554482374,156.99635832321746,187.88454348348216,235.20915325032868,93.636691655192593,83.093333333333334,20.066333333333318,3.9575243902895227,21.398233207722171,0.29569860296929740
20220625063000,433.72907634307199,20.048113578677089,9.9369474166490890E-002,0,-56.269264088529660,0,-7.2802226270764558,2,15.023284102098557,0,186.92244780176503,2.2172194021249241,5.0254913348224415,0.68638517359442808,0.67633381414122351,0.48475217663831660,0.29998265963927317,39.997794680963032,0.47502618960747500,85.293513864299655,155.94374631495336,186.62483575044817,233.63214865092766,93.623847873480912,80.575000000000003,19.992333333333306,4.5262359839904072,21.211383413526789,0.29671535813095962
20220625070000,434.33492263676999,19.156573695399310,0.13205075776087011,0,-47.106888975316316,0,44.623442576451168,0,11.087098475484026,0,186.26988529586151,2.1575892956682656,5.6602954751442072,0.71844546798964337,0.66112647531764079,0.50199644368011087,0.34573816005391911,73.128046141764969,0.25981823667443371,92.916371259459879,169.88076081897756,203.30388254859298,254.51233603451166,93.616830990668419,77.213666666666668,19.944666666666649,5.2938120673390605,21.041703362358930,0.28437306755251507
20220625073000,437.94782909835010,18.800609098262758,0.17159335102977283,0,-59.187826608239860,0,21.948189510270485,0,16.877111465397334,0,179.17692182021125,2.2859037855407891,6.2259141724306355,0.81387634526458608,0.75707817468769156,0.58237889283608590,0.39379327227534949,85.994607428128191,0.22094408670775839,91.559841545894230,167.40059185961755,200.33575374822993,250.79659098743343,93.617861689019108,77.882000000000005,19.503666666666675,4.9998373246987420,20.574842508951861,0.24020689175565774
20220625080000,439.65840642071538,18.464721062177919,0.15181906631234141,0,-58.402698742441594,0,30.072406553160125,0,15.986846384035795,0,179.40711481880541,2.1870670474028113,5.4061939938467347,0.85844347088360129,0.78255228427479773,0.61800017805954610,0.37030664047874040,72.455795706085723,0.26222885022300774,83.121470876226326,151.97255899517461,181.87233878406673,227.68258640082374,93.602785989366325,77.295999999999992,19.332666666666682,5.0780078026297204,20.346052764044884,0.22297381801632754
20220625083000,442.61338870444848,18.238754198770117,0.12790727520265624,0,-40.536286085895235,0,15.322209725412284,0,13.401943908939373,0,187.79693888594934,2.1556713139239529,5.6570309880232559,0.80658361042273308,0.73153929540033569,0.51538711882411903,0.33965372199595883,80.542199930335144,0.23590117995825818,89.696842287822022,163.99443504272318,196.25945398299703,245.69354739268860,93.590042074869800,78.420333333333332,18.901333333333355,4.6984795427568269,19.889726314968584,0.22010001873571461
20220625090000,442.10667682404977,17.925818478769852,0.19553688875183420,0,-53.638014480350634,0,16.676426818422410,0,17.295141190788762,0,190.43845816309124,2.2381011313935839,5.9971725895534744,0.85627798061521276,0.76244136353432834,0.59157615679182995,0.41976337083431448,114.86453652192679,0.16541223753924292,95.159028917601020,173.98105427703419,208.21088658832520,260.65532280597449,93.563905666015629,78.579333333333338,18.587666666666678,4.5732870257230704,19.558662039015076,0.24671032905836229
20220625093000,442.29775109896559,17.675009262753466,0.14325005684003370,0,-54.859336543448748,0,21.829300573960928,0,23.369627498181060,0,191.80820141159191,2.2007264025686730,5.8297786046241686,0.77224242880862359,0.69519394923221345,0.55494300532697249,0.35906782486306099,70.290927041146958,0.27030515601078592,88.388830382721679,161.60297211119911,193.39748364211798,242.11070013966324,93.563077148437500,79.075333333333333,18.262333333333345,4.3772176630633792,19.224817977057569,0.26123480964200951
20220625100000,438.58445696382284,17.372025406455037,0.13745057790619136,0,-60.042276106194592,0,21.497966060789000,1,21.127168432749496,0,198.12400461606478,2.3309999274613586,5.0651024568066960,0.75274599763077410,0.68152591460135337,0.52056563741159523,0.35160346162897943,60.298560853132379,0.31509873090135271,91.478074785098542,167.25109614271221,200.15684555683310,250.57261916182293,93.565737202039941,78.498666666666665,18.103999999999985,4.4533506360166575,19.048432599385592,0.28209851214879650
20220625103000,437.04902756246821,17.353427826253064,0.11164915894453699,0,-41.239873632442311,0,4.4769397749376028,1,10.822565455281103,0,187.07047199146638,2.2532592216718021,4.8827268695967900,0.66863260988847550,0.62006540151335110,0.45349995476652011,0.31690318972874909,64.272037565338607,0.29561844807992438,94.001414717557736,171.86456631724221,205.67799105902176,257.48443816760408,93.552594521918408,78.469333333333338,18.090666666666664,4.4556913992817408,19.011795583936930,0.23867316433626801
20220625110000,438.35753844629727,17.329901496789805,0.12686959296071379,0,-35.669511784064909,0,2.4731653579905188,2,7.7344640346719684,0,183.18285344396753,2.2806609863603944,5.2684946207558649,0.71077349983544114,0.67292783697323832,0.51138392602432803,0.33782729695997638,90.009859409520033,0.21108798663438902,89.869646215693052,164.31037573585749,196.63755430029985,246.16688412293590,93.536153631076388,78.475666666666669,18.064999999999998,4.4472011744059436,18.932346535576698,0.23819312315849009
20220625113000,440.33590980301119,17.536962885844925,0.18854074619175551,0,-50.246972423702900,0,11.302860347708981,0,9.0606202792703581,0,180.47153555604899,2.4119389666750508,5.8549153332889947,0.88178432122576755,0.76149191354538692,0.61736652338667963,0.41175037243809637,115.69115750024878,0.16423035615283860,90.558170345673773,165.56921743897058,198.14406630626908,248.05285838519140,93.533264858940967,80.140000000000001,17.919666666666672,4.0659952058809337,18.788854305691189,0.20053572630725006
20220625120000,434.37868450433427,17.827388123362191,0.21770882613115947,0,4.5268222972686774,2,39.994626472125020,0,-0.23311474578137240,2,183.52788689039144,2.4723337380531203,6.4627717737738104,0.93242950874591835,0.86395422018469215,0.65876184805364457,0.44333534607601105,-1602.9509593067808,-1.1853138668831656E-002,91.213271954654189,166.76695211412883,199.57744880672905,249.84728318441213,93.526313730171410,76.012000000000000,19.024666666666690,5.2632002830292848,19.785592028230838,0.32345172829093116
20220625123000,429.78245259525750,18.105436835449357,0.21611021392987534,0,5.5598845307128641,0,53.338047763998176,0,-3.5552330104479988,1,183.95086959874709,2.4194229628626536,6.7441007674353832,1.0230191695516571,0.94716102821435344,0.72929610560799429,0.44215184149051168,-1294.9138729626395,-1.4672790520445820E-002,83.905211166582646,153.40548620709114,183.58718668201431,229.82937247779986,93.541149675781256,74.345666666666673,19.632000000000005,5.8456561159653964,20.412779735989034,0.10319633351476629
20220625130000,424.33635174244392,18.241155436217650,0.32525117465169245,0,11.845770231761078,1,76.751929845235622,0,-7.5363991682619140,1,191.99749317274973,2.6871101113576294,7.2491788556781174,1.1557743609634028,1.0208260378663323,0.75203324764328361,0.54281691368809160,-1124.5384027612743,-1.6895821390666609E-002,96.469041593928566,176.37617525647482,211.07723467828194,264.24365048136247,93.532540331597218,73.168666666666667,20.008333333333326,6.2581888837456319,20.825393735249918,0.13692957911801112
20220625133000,418.21600077047884,18.457648021959496,0.21365022969260380,0,-4.1133008683757755,2,60.249947398017191,0,-4.7006574778875887,0,188.91044218871653,2.3137276254489318,8.0242497535125921,0.94976153739774649,0.89718277178117734,0.67566164519981031,0.44021978155807440,1727.3142957683765,1.0999735280687909E-002,88.880631148142371,162.50214076219737,194.47355886648504,243.45781862883945,93.519411417457832,72.644999999999996,20.312999999999988,6.5016800677695574,21.171532091653035,6.9741052273834023E-002
20220625140000,415.65740002931375,18.447527309302075,0.36600318446256541,0,-1.8479580644242064,2,76.444911239866428,0,-12.663074088817082,1,197.74372808022017,2.6956655237819027,7.7532154116798306,1.2455711214011085,1.0778522316603012,0.85120422584788813,0.57616936970034016,8619.4875016194510,2.2043073902514774E-003,91.636399362312062,167.54056396489256,200.50326460886961,251.00629470739247,93.510669416449659,72.778000000000006,20.273000000000025,6.4541004477789174,21.129897069295282,6.9732708891325448E-002
20220625143000,413.15955217130590,18.105995487190029,0.55291567785714135,0,-16.352876667994181,1,104.41073906866058,0,-2.0424383858477020,2,203.23670650303910,3.3855559954260146,8.3048463310542715,1.4092540333023154,1.2389400668003934,0.94409974352334758,0.70827847520855469,1808.7613769593545,1.0504425980136879E-002,99.495589846178490,181.90967072964438,217.69941548520214,272.53383503506535,93.470364435112828,71.391000000000005,20.274999999999977,6.7837843778721822,21.081952949523952,0.10031670004533806
20220625150000,410.90390100532358,18.123374538862052,0.69755604931069937,0,2.5991410311360110,1,159.33807758121171,0,-9.5870512360567268,0,198.59351769370096,3.3053320519512988,9.3928900753330993,1.5819212785103822,1.3146399887867581,1.0351309571999732,0.79609951294235493,-16157.868382226165,-1.1758976834407324E-003,101.49217245787592,185.56006052119113,222.06799974312182,278.00278413091445,93.453484400824664,69.898666666666671,20.629999999999995,7.2957154150515384,21.389531742519807,9.5791329807865908E-002
20220625153000,409.95676339205090,18.002475631284035,0.71371141818338968,0,33.775549835906986,0,139.26795507425217,0,-12.512616021380447,0,192.11589078552663,3.2927412116762271,11.701385863735524,1.6119105141120182,1.3383817214428397,1.0431332769192385,0.80539073660206140,-1287.2397923718834,-1.4760264647343114E-002,101.80951391189194,186.14026190999812,222.76235262002137,278.87203153788289,93.435082665435061,69.218000000000004,20.677000000000021,7.4823233513684935,21.395696264903506,0.14543760960865840
20220625160000,408.39496923202319,18.190202538984050,0.62752865476810538,0,36.096521513138377,0,133.33625890484001,0,-15.722842936704957,0,202.89976433218354,3.6434422280433147,10.022544198758185,1.5314534582530170,1.3298269235606419,1.0316573836130654,0.75569608663741450,-995.09011597576819,-1.9093748088703431E-002,97.612232519028893,178.46629286960345,213.57857163770987,267.37502753512484,93.443028966362846,68.287999999999997,21.067000000000007,7.8955095126628070,21.782668590121830,0.17964613043085925
20220625163000,407.30129753325679,18.582979082461147,0.45849730448006942,0,22.304442152849383,0,136.90487094763813,0,-13.614783948179175,0,204.69221378560974,2.8406881141853884,7.8237314235470983,1.3770232643591538,1.1509791175755404,0.88149938138251249,0.64620893334206431,-1006.9514047169192,-1.8868835090747407E-002,97.673253951218655,178.57785950943392,213.71208841106954,267.54217469169447,93.432010760850702,69.084000000000003,21.224333333333334,7.7720097345650059,22.019423194885292,0.10558699220897565
20220625170000,406.44943866871512,19.303972466336720,0.67938609487720147,0,73.498233502801924,0,185.47504635171418,0,-24.273902502231991,0,195.51836213313382,3.2192404864820827,9.8866451684345815,1.7572816025871230,1.3246674180536524,0.98558386639821371,0.78733016149938151,-552.74450020815948,-3.4373928628588325E-002,104.62260816171873,191.28349538907580,228.91748949431766,286.57753250938981,93.429168322087875,69.834666666666664,21.668999999999983,7.7926059516409127,22.525965288054010,0.29553484424867121
20220625173000,408.09679739898297,19.871067089572744,0.69858260981347098,0,0.79295110295255944,2,154.22129279125019,0,-7.2246287253540409,1,198.88500993762324,3.3755461945234795,9.2316841289735176,1.6169333381727158,1.3961271717488621,1.0498536401815617,0.79854071202914267,-53464.830913204540,-3.5537379760622139E-004,100.59804555892904,183.92531138276797,220.11162254518504,275.55363203126120,93.443747901909731,71.441999999999993,21.773000000000025,7.4244126706780023,22.722690599229622,0.12417715849820092
20220625180000,409.15752288846812,20.830375447200758,0.67123887709943053,0,-44.177266016197663,1,140.09140809324310,0,-14.927299696392840,0,208.24773862034641,3.6489296579821016,10.753902178389231,1.6464164108453523,1.3325220000598372,0.98760273165332746,0.78152477853267355,899.87433795241873,2.1114059151006299E-002,103.83488241789320,189.84328149712235,227.19392130140997,284.41982965791146,93.462914630425360,79.518666666666675,20.798333333333346,5.0158210499305733,21.894668354458304,0.32032190273411332
20220625183000,409.32747779265344,21.701532236259194,0.41456899531653330,0,-7.1549801078049384,2,82.884665242158363,0,-15.853562204524794,0,221.66971907859156,3.5030381596345155,9.9172134750190892,1.4633266267472729,1.1568753041140529,0.90382915375213191,0.61357849089318273,2689.1244273752873,7.0654967864558424E-003,91.850584592006484,167.93216287564931,200.97190848928807,251.59298123437051,93.461193685546888,86.433333333333337,20.110666666666646,3.1844181718066080,21.315140196906214,0.10568315770750264
20220625190000,409.32749289261096,21.760023183509574,0.72062026289937153,0,42.200149164789970,0,127.61243611233890,0,-19.500069334944332,0,223.14916470277015,3.4544003992554884,10.246940283136036,1.7952665147768627,1.2468263507314865,0.96803160954435785,0.80914699067803486,-1045.5068013736204,-1.8173004685418773E-002,108.48387944900300,198.34313079154575,237.36607001503373,297.15415277629086,93.444455258463535,86.226666666666659,20.189999999999998,3.2488288283827389,21.349110198974586,0.17639096517251010
20220625193000,408.88202520840082,21.702766912983527,0.69711225520938647,0,70.099591399686432,0,181.42931307277323,0,-23.433390196468835,0,218.55316285117718,3.1613129292984712,9.4439418705966229,1.5032367558930499,1.2558728335243847,1.0211427679146723,0.79645607833826215,-600.11250246601514,-3.1660730149637210E-002,102.63965697417940,187.65802818840979,224.57873121236372,281.14592199617078,93.416028256727429,84.023333333333326,20.561666666666667,3.8560197672497591,21.706361845228344,0.32828931922248633
20220625200000,408.19674137093944,21.268240466101254,0.82691214325840878,0,106.49959034907684,0,170.44258106574279,0,-20.060912169676179,0,227.60274243049270,3.6339608545546760,10.959279664743597,1.7431840172979798,1.3740932414140727,1.0073781833976543,0.86889779267179590,-512.75821648896442,-3.7054501301021898E-002,111.24380164448782,203.38914879692936,243.40486479649670,304.71400725322542,93.391236452473962,77.616666666666674,21.519333333333350,5.7295952185851817,22.564915843539779,0.25996850812770911
20220625203000,408.50749298653722,21.167929813208776,0.69001617555939176,0,111.12319160269892,0,167.49392150117197,0,-19.959288105214902,0,236.22234540943373,3.2393829900309346,10.111378085590401,1.6316326963907184,1.3028655875202799,0.87215870652678007,0.79450311526983963,-375.63364333222478,-5.0581198828337302E-002,116.21306806893783,212.47455268706270,254.27777280845478,318.32559785799600,93.370494057291680,74.793333333333337,22.045000000000016,6.6628042223513351,22.947609400431361,0.42292458531661159
20220625210000,407.88310368904996,21.275941290536750,0.62876097663337260,0,78.287543383546407,0,123.54478676425876,0,-19.862437635896434,0,234.28126949536508,2.7525560421984077,7.8440477850331538,1.4256371328320563,1.2138301575803663,0.85718955323349955,0.75872129132342481,-464.29207397481491,-4.0922516374963226E-002,113.56884822099730,207.64007547436108,248.49213832755990,311.08267003627856,93.353908724884363,74.381333333333330,22.216333333333353,6.8427446370523333,23.266029388261643,0.30877112371565429
20220625213000,406.82924330416228,21.615759727101480,0.37774552592947769,0,52.701775914392826,0,138.67353912052016,0,-13.650272142839238,0,215.53242143830636,2.5439517774416802,7.2107336275120977,1.2200097114550250,1.1008624485006495,0.74754247461717371,0.58876621943465157,-322.22411662116554,-5.8965170575168459E-002,103.44285730951479,189.12653456901108,226.33615828818048,283.34601215121012,93.319753214409715,73.106999999999999,22.755666666666684,7.4223401683977501,23.882338147481278,0.27282150389847043
20220625220000,407.03713549896855,21.305321796253569,0.37266395285944848,0,14.901472032946266,0,88.042716289880659,0,-10.424686129628441,0,213.22770189823666,3.0897863931096805,8.4393687145567142,1.4059454407736465,1.0950561785599486,0.80299584220049902,0.58521622082412528,-1118.7883401577071,-1.6982658218731270E-002,97.215910215757262,177.74168929870731,212.71140622968150,266.28943934586408,93.287886082465263,70.468333333333334,23.118333333333339,8.3315112912328271,24.229138684590680,0.14087748224223351
20220625223000,409.58435317121564,21.127896398364356,0.45540604653769229,0,-28.770381236453872,0,91.568967107657215,0,-0.84012519500423288,2,229.51609712136033,2.7975817902862703,8.7460080884738094,1.2799235543379253,1.1991661512707763,0.75739327987925587,0.64638138961813740,780.73953082011269,2.4335901091163938E-002,110.30337907270305,201.66975640331100,241.34719124028032,302.13804413326926,93.280511112847222,72.047666666666672,22.613000000000000,7.6482451729339669,23.794722876654703,0.21271488223102131